Regional Weather Roundup
Issued by NWS

Home | Current Version | Previous Version | Text Only | Print | Product List | Glossary On
Versions: 1 2 3 4 5 6 7 8 9 10 11 12 13 14 15 16 17 18 19 20 21 22 23 24 25 26 27 28 29 30 31 32 33 34 35 36 37 38 39 40 41 42 43 44 45 46 47 48 49 50
000
ASUS43 KLOT 161608
RWRIL

ILLINOIS REGIONAL WEATHER ROUNDUP
NATIONAL WEATHER SERVICE CHICAGO/ROMEOVILLE IL
1100 AM CDT MON MAY 16 2022

NOTE: "FAIR" INDICATES FEW OR NO CLOUDS BELOW 12,000 FEET WITH NO
SIGNIFICANT WEATHER AND/OR OBSTRUCTIONS TO VISIBILITY.

* THESE STATIONS ARE NOT UNDER NWS QUALITY CONTROL. THEY ALSO MAY NOT
  REPORT WEATHER SUCH AS PRECIPITATION OR FOG.

ILZ001-002-007-009-015-016-024-161700-
NORTHWEST ILLINOIS

CITY           SKY/WX    TMP DP  RH WIND       PRES   REMARKS
MOLINE         MOSUNNY   73  50  44 W14G21    29.94S
STERLING*      SUNNY     71  48  43 W17       29.93S
SAVANNA*       SUNNY     72  43  35 NW7       29.93S
$$

ILZ003-004-008-010-011-017-018-161700-
NORTH CENTRAL ILLINOIS

CITY           SKY/WX    TMP DP  RH WIND       PRES   REMARKS
ROCKFORD       MOSUNNY   73  43  33 NW16      29.91S
FREEPORT*      MOSUNNY   72  49  43 W14G20    29.93S
ROCHELLE*      SUNNY     71  46  40 W10G18    29.92S
DE KALB*       SUNNY     70  46  42 NW14      29.91S
PERU*          SUNNY     72  49  44 NW18      29.93S
$$

ILZ005-006-012>014-019>023-161700-
NORTHEAST ILLINOIS

CITY           SKY/WX    TMP DP  RH WIND       PRES   REMARKS
CHICAGO-OHARE  MOSUNNY   73  42  32 NW16G24   29.87R
CHICAGO-MIDWAY MOSUNNY   75  44  33 NW17G28   29.87S
AURORA         SUNNY     73  44  35 NW16G30   29.89S
JOLIET*        SUNNY     73  46  37 NW7G16    29.90R
WAUKEGAN       MOSUNNY   73  41  31 NW9G23    29.85S
DUPAGE AIRPORT SUNNY     72  45  37 NW13G26   29.88S
KANKAKEE*      SUNNY     72  54  53 W12G17    29.91S
WHEELING       SUNNY     74  44  34 NW16      29.88R
MORRIS*        SUNNY     74  45  35 NW17G24   29.89S
ROMEOVILLE*    SUNNY     73  48  41 NW15      29.89S
LANSING*       SUNNY     71  49  44 NW12      29.88S
NORTHERLY ISL*   N/A     71  40  32 W8          N/A
$$

LMZ740>746-161700-
SOUTHERN LAKE MICHIGAN

STATION/POSITION SKY/WX   TEMP    WIND        PRES    VSBY  WAVE
                          AIR SEA DIR/SP/G                  HT/PER
                          (F)     (DEG/KT/KT) (MB)    (MI)  (FT/S)
SOUTHERN BUOY              47 43  260/  8/  8 1011.1R         1
WINTHROP HARBOR            61 45  300/ 10/ 16   N/A           1
WAUKEGAN HARBOR            64 45  330/ 12/ 17   N/A           1
HARRISON CRIB              69     310/ 11/ 13   N/A
NORTHERLY ISL              71     240/  5/ 12   N/A
CALUMET HARBOR             72     280/  5/ 10 1010.0S
BURNS HARBOR               61     270/  4/  5 1012.2R
MICHIGAN CITY              58     240/ 11/ 12   N/A
ST. JOSEPH                 53                 1011.8R         2/ 4
$$

ILZ025>027-034>036-040-047-049-050-058-095>099-161700-
WEST-CENTRAL ILLINOIS

CITY           SKY/WX    TMP DP  RH WIND       PRES   REMARKS
QUINCY         SUNNY     72  50  45 W9        30.01S HAZE
GALESBURG*     SUNNY     72  49  43 NW12G17   29.98S
MACOMB*        SUNNY     72  47  41 W10G17    30.01S
JACKSONVILLE*  SUNNY     73  48  41 W13       29.99S
PITTSFIELD*    SUNNY     73  52  48 W10       30.02S
$$

ILZ028>032-037-038-041>044-048-051>054-059>061-161700-
CENTRAL ILLINOIS

CITY           SKY/WX    TMP DP  RH WIND       PRES   REMARKS
PONTIAC        SUNNY     74  42  32 NW14      29.93S
BLOOMINGTON    SUNNY     73  50  44 W17       29.96S
DECATUR        SUNNY     71  56  58 W13G22    29.97R
PEORIA         SUNNY     74  45  35 NW13G24   29.95S
LACON*         SUNNY     73  51  45 NW13G18   29.93S
LINCOLN*       SUNNY     73  51  47 NW10      29.97S
SPRINGFIELD    SUNNY     74  50  42 NW12        N/A
TAYLORVILLE    SUNNY     72  50  46 NW10      29.98S
$$

ILZ033-039-045-046-055>057-062-063-161700-
EAST-CENTRAL ILLINOIS

CITY           SKY/WX    TMP DP  RH WIND       PRES   REMARKS
CHAMPAIGN      SUNNY     72  54  53 W21       29.95S
DANVILLE*      SUNNY     71  54  54 W7        29.94R
RANTOUL*       SUNNY     71  52  49 W12G18    29.94S
MATTOON        SUNNY     71  55  56 NW10      29.96R
PARIS*         SUNNY     69  60  73 W12       29.97R
$$

ILZ079-100>102-161700-
SOUTHWEST ILLINOIS

CITY           SKY/WX    TMP DP  RH WIND       PRES   REMARKS
ALTON          SUNNY     75  46  35 NW9       30.01S
BELLEVILLE     MOSUNNY   74  52  44 NW9       29.99S
CAHOKIA*       SUNNY     76  48  37 NW14G20   30.00S
SPARTA*        SUNNY     72  53  51 NW8       30.02S
$$

ILZ064>066-069>071-074>076-080>082-084>086-088>090-092>094-161700-
SOUTH-CENTRAL ILLINOIS

CITY           SKY/WX    TMP DP  RH WIND       PRES   REMARKS
CARBONDALE     SUNNY     73  54  51 NW9       30.01S
CAIRO*         SUNNY     74  54  50 N6        30.03R
EFFINGHAM*     SUNNY     73  52  47 W9        30.00R
MARION         SUNNY     73  54  49 NW9       30.01R
MT. VERNON     SUNNY     72  53  51 VRB5      30.00R
CENTRALIA*     SUNNY     73  53  50 NW9       30.00R
SALEM*         SUNNY     73  54  51 W9        30.00R
METROPOLIS*    SUNNY     71  51  47 N3        30.03R
$$

ILZ067-068-072-073-078-083-087-091-161700-
SOUTHEAST ILLINOIS

CITY           SKY/WX    TMP DP  RH WIND       PRES   REMARKS
LAWRENCEVILLE  SUNNY     71  55  56 W9        29.97S
FLORA*         SUNNY     72  54  53 NW12      29.99R
FAIRFIELD*     SUNNY     74  51  43 N5        29.99R
HARRISBURG*    SUNNY     75  41  29 NW8       30.00S
ROBINSON*      SUNNY     70  55  58 W9        29.97S
CARMI*         SUNNY     75  54  46 NW8G17    29.98S
$$

ABBREVIATIONS USED IN REMARKS
   TC - TEMPERATURE IN CELSIUS
  WCI - WIND CHILL INDEX
   HX - HEAT INDEX
  VSB - VISIBILITY
$$




USA.gov is the U.S. government's official web portal to all federal, state and local government web resources and services.